Time,TemperatureF,DewpointF,PressureIn,WindDirection,WindDirectionDegrees,WindSpeedMPH,WindSpeedGustMPH,Humidity,HourlyPrecipIn,Conditions,Clouds,dailyrainin,SoftwareType,DateUTC
2013-01-23 00:03:00,-12.0,-17.0,-100.00,South,170,2.0,4.0,77,-99.99,,,-99.99,,2013-01-23 05:03:00,
2013-01-23 00:12:00,-12.0,-17.0,-100.00,South,170,2.0,4.0,77,-99.99,,,-99.99,,2013-01-23 05:12:00,
2013-01-23 00:22:00,-12.0,-17.0,-100.00,SW,220,1.0,4.0,78,-99.99,,,-99.99,,2013-01-23 05:22:00,
2013-01-23 00:33:00,-13.0,-18.0,-100.00,West,270,3.0,4.0,78,-99.99,,,-99.99,,2013-01-23 05:33:00,
2013-01-23 00:43:00,-13.0,-18.0,-100.00,West,270,3.0,4.0,78,-99.99,,,-99.99,,2013-01-23 05:43:00,
2013-01-23 00:52:00,-13.0,-18.0,-100.00,West,270,4.0,6.0,78,-99.99,,,-99.99,,2013-01-23 05:52:00,
2013-01-23 01:02:00,-11.0,-16.0,-100.00,West,270,4.0,7.0,78,-99.99,,,-99.99,,2013-01-23 06:02:00,
2013-01-23 01:12:00,-11.0,-16.0,-100.00,West,270,4.0,7.0,78,-99.99,,,-99.99,,2013-01-23 06:12:00,
2013-01-23 01:22:00,-7.0,-12.0,-100.00,West,265,6.0,10.0,78,-99.99,,,-99.99,,2013-01-23 06:22:00,
2013-01-23 01:32:00,-3.0,-10.0,-100.00,West,280,6.0,9.0,73,-99.99,,,-99.99,,2013-01-23 06:32:00,
2013-01-23 01:43:00,-3.0,-10.0,-100.00,West,280,6.0,9.0,73,-99.99,,,-99.99,,2013-01-23 06:43:00,
2013-01-23 01:52:00,-3.0,-10.0,-100.00,West,260,6.0,10.0,70,-99.99,,,-99.99,,2013-01-23 06:52:00,
2013-01-23 02:02:00,-2.0,-10.0,-100.00,West,280,8.0,13.0,68,-99.99,,,-99.99,,2013-01-23 07:02:00,
2013-01-23 02:12:00,-2.0,-10.0,-100.00,West,280,8.0,13.0,68,-99.99,,,-99.99,,2013-01-23 07:12:00,
2013-01-23 02:22:00,-1.0,-9.0,-100.00,West,275,7.0,14.0,68,-99.99,,,-99.99,,2013-01-23 07:22:00,
2013-01-23 02:33:00,-1.0,-9.0,-100.00,WNW,285,6.0,11.0,68,-99.99,,,-99.99,,2013-01-23 07:33:00,
2013-01-23 02:42:00,-1.0,-9.0,-100.00,WNW,285,6.0,11.0,68,-99.99,,,-99.99,,2013-01-23 07:42:00,
2013-01-23 02:52:00,-1.0,-9.0,-100.00,WNW,285,5.0,11.0,68,-99.99,,,-99.99,,2013-01-23 07:52:00,
2013-01-23 03:02:00,-1.0,-9.0,-100.00,West,275,6.0,10.0,68,-99.99,,,-99.99,,2013-01-23 08:02:00,
2013-01-23 03:13:00,-1.0,-9.0,-100.00,West,275,6.0,10.0,68,-99.99,,,-99.99,,2013-01-23 08:13:00,
2013-01-23 03:22:00,-1.0,-9.0,-100.00,West,270,6.0,10.0,68,-99.99,,,-99.99,,2013-01-23 08:22:00,
2013-01-23 03:33:00,-1.0,-9.0,-100.00,WNW,285,5.0,9.0,68,-99.99,,,-99.99,,2013-01-23 08:33:00,
2013-01-23 03:42:00,-1.0,-9.0,-100.00,WNW,285,5.0,9.0,68,-99.99,,,-99.99,,2013-01-23 08:42:00,
2013-01-23 03:50:00,-1.0,-8.0,-100.00,West,270,7.0,9.0,69,-99.99,,,-99.99,,2013-01-23 08:50:00,
2013-01-23 03:52:00,-1.0,-8.0,-100.00,WNW,285,6.0,9.0,69,-99.99,,,-99.99,,2013-01-23 08:52:00,
2013-01-23 04:03:00,-1.0,-8.0,-100.00,WNW,285,6.0,9.0,69,-99.99,,,-99.99,,2013-01-23 09:03:00,
2013-01-23 04:12:00,-1.0,-8.0,-100.00,WNW,285,6.0,9.0,69,-99.99,,,-99.99,,2013-01-23 09:12:00,
2013-01-23 04:22:00,0.0,-8.0,-100.00,WNW,285,6.0,10.0,69,-99.99,,,-99.99,,2013-01-23 09:22:00,
2013-01-23 04:32:00,-1.0,-8.0,-100.00,West,270,7.0,9.0,69,-99.99,,,-99.99,,2013-01-23 09:32:00,
2013-01-23 04:43:00,-1.0,-8.0,-100.00,West,270,7.0,9.0,69,-99.99,,,-99.99,,2013-01-23 09:43:00,
2013-01-23 05:03:00,-2.0,-9.0,-100.00,WNW,290,7.0,11.0,70,-99.99,,,-99.99,,2013-01-23 10:03:00,
2013-01-23 05:12:00,-2.0,-9.0,-100.00,WNW,290,7.0,11.0,70,-99.99,,,-99.99,,2013-01-23 10:12:00,
2013-01-23 05:23:00,-2.0,-9.0,-100.00,WNW,285,9.0,11.0,71,-99.99,,,-99.99,,2013-01-23 10:23:00,
2013-01-23 05:33:00,-2.0,-9.0,-100.00,West,280,8.0,14.0,71,-99.99,,,-99.99,,2013-01-23 10:33:00,
2013-01-23 05:43:00,-2.0,-9.0,-100.00,West,280,8.0,14.0,71,-99.99,,,-99.99,,2013-01-23 10:43:00,
2013-01-23 05:52:00,-3.0,-9.0,-100.00,WNW,285,6.0,9.0,72,-99.99,,,-99.99,,2013-01-23 10:52:00,
2013-01-23 06:02:00,-3.0,-9.0,-100.00,WNW,285,6.0,9.0,72,-99.99,,,-99.99,,2013-01-23 11:02:00,
2013-01-23 06:12:00,-3.0,-9.0,-100.00,WNW,285,6.0,9.0,72,-99.99,,,-99.99,,2013-01-23 11:12:00,
2013-01-23 06:23:00,-3.0,-9.0,-100.00,WNW,285,9.0,11.0,72,-99.99,,,-99.99,,2013-01-23 11:23:00,
2013-01-23 06:33:00,-3.0,-9.0,-100.00,West,270,5.0,9.0,72,-99.99,,,-99.99,,2013-01-23 11:33:00,
2013-01-23 06:43:00,-3.0,-9.0,-100.00,West,270,5.0,9.0,72,-99.99,,,-99.99,,2013-01-23 11:43:00,
2013-01-23 06:53:00,-3.0,-9.0,-100.00,West,260,5.0,8.0,73,-99.99,,,-99.99,,2013-01-23 11:53:00,
2013-01-23 07:03:00,-3.0,-9.0,-100.00,West,280,6.0,9.0,73,-99.99,,,-99.99,,2013-01-23 12:03:00,
2013-01-23 07:12:00,-3.0,-9.0,-100.00,West,280,6.0,9.0,73,-99.99,,,-99.99,,2013-01-23 12:12:00,
2013-01-23 07:22:00,-3.0,-9.0,-100.00,WSW,255,4.0,8.0,73,-99.99,,,-99.99,,2013-01-23 12:22:00,
2013-01-23 07:33:00,-3.0,-9.0,-100.00,West,260,7.0,10.0,73,-99.99,,,-99.99,,2013-01-23 12:33:00,
2013-01-23 07:43:00,-3.0,-9.0,-100.00,West,260,7.0,10.0,73,-99.99,,,-99.99,,2013-01-23 12:43:00,
2013-01-23 07:53:00,-3.0,-9.0,-100.00,West,280,9.0,14.0,72,-99.99,,,-99.99,,2013-01-23 12:53:00,
2013-01-23 08:04:00,-2.0,-9.0,-100.00,West,270,4.0,12.0,72,-99.99,,,-99.99,,2013-01-23 13:04:00,
2013-01-23 08:13:00,-2.0,-9.0,-100.00,West,270,4.0,12.0,72,-99.99,,,-99.99,,2013-01-23 13:13:00,
2013-01-23 08:23:00,-3.0,-9.0,-100.00,WSW,245,2.0,4.0,73,-99.99,,,-99.99,,2013-01-23 13:23:00,
2013-01-23 08:33:00,-3.0,-9.0,-100.00,WSW,245,2.0,4.0,73,-99.99,,,-99.99,,2013-01-23 13:33:00,
2013-01-23 08:42:00,-3.0,-9.0,-100.00,WSW,245,2.0,4.0,73,-99.99,,,-99.99,,2013-01-23 13:42:00,
2013-01-23 08:52:00,-3.0,-9.0,-100.00,WSW,240,2.0,5.0,73,-99.99,,,-99.99,,2013-01-23 13:52:00,
2013-01-23 09:03:00,-2.0,-9.0,-100.00,WNW,285,5.0,9.0,72,-99.99,,,-99.99,,2013-01-23 14:03:00,
2013-01-23 09:12:00,-2.0,-9.0,-100.00,WNW,285,5.0,9.0,72,-99.99,,,-99.99,,2013-01-23 14:12:00,
2013-01-23 09:23:00,-2.0,-9.0,-100.00,West,260,4.0,10.0,71,-99.99,,,-99.99,,2013-01-23 14:23:00,
2013-01-23 09:33:00,-2.0,-9.0,-100.00,WSW,255,4.0,7.0,72,-99.99,,,-99.99,,2013-01-23 14:33:00,
2013-01-23 09:43:00,-2.0,-9.0,-100.00,WSW,255,4.0,7.0,72,-99.99,,,-99.99,,2013-01-23 14:43:00,
2013-01-23 09:53:00,-2.0,-9.0,-100.00,WSW,255,2.0,4.0,71,-99.99,,,-99.99,,2013-01-23 14:53:00,
2013-01-23 10:03:00,-2.0,-9.0,-100.00,WSW,255,2.0,4.0,71,-99.99,,,-99.99,,2013-01-23 15:03:00,
2013-01-23 10:23:00,0.0,-8.0,-100.00,West,275,5.0,8.0,69,-99.99,,,-99.99,,2013-01-23 15:23:00,
2013-01-23 10:33:00,0.0,-8.0,-100.00,West,270,5.0,6.0,68,-99.99,,,-99.99,,2013-01-23 15:33:00,
2013-01-23 10:43:00,0.0,-8.0,-100.00,West,270,5.0,6.0,68,-99.99,,,-99.99,,2013-01-23 15:43:00,
2013-01-23 10:53:00,1.0,-7.0,-100.00,West,270,4.0,9.0,67,-99.99,,,-99.99,,2013-01-23 15:53:00,
2013-01-23 11:03:00,2.0,-7.0,-100.00,WNW,285,7.0,11.0,66,-99.99,,,-99.99,,2013-01-23 16:03:00,
2013-01-23 11:12:00,4.0,-6.0,-100.00,West,280,7.0,10.0,64,-99.99,,,-99.99,,2013-01-23 16:12:00,
2013-01-23 11:23:00,4.0,-6.0,-100.00,West,280,7.0,10.0,64,-99.99,,,-99.99,,2013-01-23 16:23:00,
2013-01-23 11:33:00,4.0,-6.0,-100.00,West,280,7.0,10.0,64,-99.99,,,-99.99,,2013-01-23 16:33:00,
2013-01-23 11:53:00,7.0,-4.0,-100.00,WNW,290,6.0,11.0,60,-99.99,,,-99.99,,2013-01-23 16:53:00,
2013-01-23 12:03:00,7.0,-4.0,-100.00,WNW,285,7.0,11.0,60,-99.99,,,-99.99,,2013-01-23 17:03:00,
2013-01-23 12:12:00,7.0,-4.0,-100.00,WNW,285,7.0,11.0,60,-99.99,,,-99.99,,2013-01-23 17:12:00,
2013-01-23 12:23:00,8.0,-3.0,-100.00,WNW,285,10.0,13.0,59,-99.99,,,-99.99,,2013-01-23 17:23:00,
2013-01-23 12:33:00,9.0,-2.0,-100.00,West,280,6.0,11.0,58,-99.99,,,-99.99,,2013-01-23 17:33:00,
2013-01-23 12:42:00,9.0,-2.0,-100.00,West,280,6.0,11.0,58,-99.99,,,-99.99,,2013-01-23 17:42:00,
2013-01-23 12:52:00,11.0,-2.0,-100.00,West,260,6.0,9.0,56,-99.99,,,-99.99,,2013-01-23 17:52:00,
2013-01-23 13:03:00,12.0,-1.0,-100.00,West,265,7.0,11.0,56,-99.99,,,-99.99,,2013-01-23 18:03:00,
2013-01-23 13:12:00,12.0,-1.0,-100.00,West,265,7.0,11.0,56,-99.99,,,-99.99,,2013-01-23 18:12:00,
2013-01-23 13:23:00,12.0,-1.0,-100.00,West,270,9.0,12.0,56,-99.99,,,-99.99,,2013-01-23 18:23:00,
2013-01-23 13:33:00,13.0,0.0,-100.00,West,260,8.0,14.0,56,-99.99,,,-99.99,,2013-01-23 18:33:00,
2013-01-23 13:43:00,13.0,0.0,-100.00,West,260,8.0,14.0,56,-99.99,,,-99.99,,2013-01-23 18:43:00,
2013-01-23 13:53:00,13.0,1.0,-100.00,West,280,6.0,13.0,57,-99.99,,,-99.99,,2013-01-23 18:53:00,
2013-01-23 14:03:00,13.0,1.0,-100.00,West,275,7.0,11.0,56,-99.99,,,-99.99,,2013-01-23 19:03:00,
2013-01-23 14:13:00,13.0,1.0,-100.00,West,275,7.0,11.0,56,-99.99,,,-99.99,,2013-01-23 19:13:00,
2013-01-23 14:23:00,14.0,1.0,-100.00,WNW,285,7.0,11.0,57,-99.99,,,-99.99,,2013-01-23 19:23:00,
2013-01-23 14:33:00,14.0,1.0,-100.00,WNW,290,6.0,11.0,56,-99.99,,,-99.99,,2013-01-23 19:33:00,
2013-01-23 14:43:00,14.0,1.0,-100.00,WNW,290,6.0,11.0,56,-99.99,,,-99.99,,2013-01-23 19:43:00,
2013-01-23 14:53:00,14.0,2.0,-100.00,West,260,8.0,14.0,58,-99.99,,,-99.99,,2013-01-23 19:53:00,
2013-01-23 15:03:00,15.0,2.0,-100.00,West,280,6.0,10.0,58,-99.99,,,-99.99,,2013-01-23 20:03:00,
2013-01-23 15:13:00,15.0,2.0,-100.00,West,280,6.0,10.0,58,-99.99,,,-99.99,,2013-01-23 20:13:00,
2013-01-23 15:23:00,14.0,3.0,-100.00,West,280,10.0,13.0,59,-99.99,,,-99.99,,2013-01-23 20:23:00,
2013-01-23 15:33:00,14.0,3.0,-100.00,West,270,10.0,14.0,60,-99.99,,,-99.99,,2013-01-23 20:33:00,
2013-01-23 15:43:00,14.0,3.0,-100.00,West,270,10.0,14.0,60,-99.99,,,-99.99,,2013-01-23 20:43:00,
2013-01-23 15:53:00,14.0,4.0,-100.00,WNW,290,8.0,14.0,63,-99.99,,,-99.99,,2013-01-23 20:53:00,
2013-01-23 16:03:00,14.0,6.0,-100.00,NW,305,5.0,15.0,68,-99.99,,,-99.99,,2013-01-23 21:03:00,
2013-01-23 16:12:00,14.0,6.0,-100.00,NW,305,5.0,15.0,68,-99.99,,,-99.99,,2013-01-23 21:12:00,
2013-01-23 16:23:00,14.0,6.0,-100.00,West,275,11.0,15.0,70,-99.99,,,-99.99,,2013-01-23 21:23:00,
2013-01-23 16:33:00,14.0,6.0,-100.00,WNW,300,6.0,14.0,69,-99.99,,,-99.99,,2013-01-23 21:33:00,
2013-01-23 16:43:00,14.0,6.0,-100.00,WNW,300,6.0,14.0,69,-99.99,,,-99.99,,2013-01-23 21:43:00,
2013-01-23 16:52:00,14.0,6.0,-100.00,WNW,285,7.0,11.0,70,-99.99,,,-99.99,,2013-01-23 21:52:00,
2013-01-23 17:02:00,14.0,6.0,-100.00,NW,315,8.0,15.0,70,-99.99,,,-99.99,,2013-01-23 22:02:00,
2013-01-23 17:12:00,14.0,6.0,-100.00,NW,315,8.0,15.0,70,-99.99,,,-99.99,,2013-01-23 22:12:00,
2013-01-23 17:23:00,14.0,7.0,-100.00,NW,320,8.0,14.0,71,-99.99,,,-99.99,,2013-01-23 22:23:00,
2013-01-23 17:33:00,14.0,7.0,-100.00,NW,315,9.0,16.0,71,-99.99,,,-99.99,,2013-01-23 22:33:00,
2013-01-23 17:42:00,14.0,7.0,-100.00,NW,315,9.0,16.0,71,-99.99,,,-99.99,,2013-01-23 22:42:00,
2013-01-23 17:53:00,14.0,7.0,-100.00,NW,320,8.0,14.0,72,-99.99,,,-99.99,,2013-01-23 22:53:00,
2013-01-23 18:03:00,13.0,9.0,-100.00,NNW,330,4.0,13.0,82,-99.99,,,-99.99,,2013-01-23 23:03:00,
2013-01-23 18:12:00,13.0,9.0,-100.00,NNW,330,4.0,13.0,82,-99.99,,,-99.99,,2013-01-23 23:12:00,
2013-01-23 18:23:00,13.0,8.0,-100.00,NW,325,6.0,12.0,80,-99.99,,,-99.99,,2013-01-23 23:23:00,
2013-01-23 18:33:00,13.0,7.0,-100.00,NNW,330,7.0,14.0,75,-99.99,,,-99.99,,2013-01-23 23:33:00,
2013-01-23 18:43:00,13.0,7.0,-100.00,NNW,330,7.0,14.0,75,-99.99,,,-99.99,,2013-01-23 23:43:00,
2013-01-23 18:53:00,13.0,5.0,-100.00,NNW,330,9.0,17.0,71,-99.99,,,-99.99,,2013-01-23 23:53:00,
2013-01-23 19:03:00,13.0,5.0,-100.00,NNW,345,9.0,16.0,69,-99.99,,,-99.99,,2013-01-24 00:03:00,
2013-01-23 19:12:00,13.0,5.0,-100.00,NNW,345,9.0,16.0,69,-99.99,,,-99.99,,2013-01-24 00:12:00,
2013-01-23 19:22:00,13.0,7.0,-100.00,NW,315,6.0,17.0,77,-99.99,,,-99.99,,2013-01-24 00:22:00,
2013-01-23 19:32:00,12.0,8.0,-100.00,NW,315,8.0,17.0,84,-99.99,,,-99.99,,2013-01-24 00:32:00,
2013-01-23 19:42:00,12.0,8.0,-100.00,NW,315,8.0,17.0,84,-99.99,,,-99.99,,2013-01-24 00:42:00,
2013-01-23 19:53:00,13.0,9.0,-100.00,NNW,340,11.0,21.0,84,-99.99,,,-99.99,,2013-01-24 00:53:00,
2013-01-23 20:03:00,13.0,8.0,-100.00,North,350,16.0,26.0,81,-99.99,,,-99.99,,2013-01-24 01:03:00,
2013-01-23 20:12:00,13.0,8.0,-100.00,North,350,16.0,26.0,81,-99.99,,,-99.99,,2013-01-24 01:12:00,
2013-01-23 20:23:00,13.0,8.0,-100.00,NNW,335,14.0,24.0,82,-99.99,,,-99.99,,2013-01-24 01:23:00,
2013-01-23 20:33:00,12.0,7.0,-100.00,NNW,345,14.0,26.0,81,-99.99,,,-99.99,,2013-01-24 01:33:00,
2013-01-23 20:42:00,12.0,7.0,-100.00,NNW,345,14.0,26.0,81,-99.99,,,-99.99,,2013-01-24 01:42:00,
2013-01-23 20:50:00,11.0,7.0,-100.00,NNW,340,13.0,19.0,82,-99.99,,,-99.99,,2013-01-24 01:50:00,
2013-01-23 20:52:00,12.0,7.0,-100.00,NNW,330,12.0,25.0,79,-99.99,,,-99.99,,2013-01-24 01:52:00,
2013-01-23 21:02:00,11.0,7.0,-100.00,North,355,12.0,23.0,82,-99.99,,,-99.99,,2013-01-24 02:02:00,
2013-01-23 21:12:00,11.0,7.0,-100.00,North,355,12.0,23.0,82,-99.99,,,-99.99,,2013-01-24 02:12:00,
2013-01-23 21:22:00,11.0,7.0,-100.00,NNW,345,15.0,24.0,83,-99.99,,,-99.99,,2013-01-24 02:22:00,
2013-01-23 21:33:00,11.0,7.0,-100.00,NNW,340,13.0,19.0,82,-99.99,,,-99.99,,2013-01-24 02:33:00,
2013-01-23 21:42:00,11.0,7.0,-100.00,NNW,340,13.0,19.0,82,-99.99,,,-99.99,,2013-01-24 02:42:00,
2013-01-23 22:02:00,11.0,7.0,-100.00,North,0,16.0,21.0,82,-99.99,,,-99.99,,2013-01-24 03:02:00,
2013-01-23 22:12:00,11.0,7.0,-100.00,North,0,16.0,21.0,82,-99.99,,,-99.99,,2013-01-24 03:12:00,
2013-01-23 22:22:00,11.0,7.0,-100.00,North,355,16.0,22.0,81,-99.99,,,-99.99,,2013-01-24 03:22:00,
2013-01-23 22:33:00,11.0,7.0,-100.00,North,355,13.0,22.0,81,-99.99,,,-99.99,,2013-01-24 03:33:00,
2013-01-23 22:43:00,11.0,7.0,-100.00,North,355,13.0,22.0,81,-99.99,,,-99.99,,2013-01-24 03:43:00,
2013-01-23 22:52:00,11.0,8.0,-100.00,North,350,14.0,21.0,85,-99.99,,,-99.99,,2013-01-24 03:52:00,
2013-01-23 23:02:00,11.0,8.0,-100.00,North,350,14.0,18.0,88,-99.99,,,-99.99,,2013-01-24 04:02:00,
2013-01-23 23:12:00,11.0,8.0,-100.00,North,350,14.0,18.0,88,-99.99,,,-99.99,,2013-01-24 04:12:00,
2013-01-23 23:22:00,11.0,8.0,-100.00,North,5,11.0,23.0,88,-99.99,,,-99.99,,2013-01-24 04:22:00,
2013-01-23 23:32:00,11.0,8.0,-100.00,North,355,14.0,21.0,88,-99.99,,,-99.99,,2013-01-24 04:32:00,
2013-01-23 23:42:00,11.0,8.0,-100.00,North,355,14.0,21.0,88,-99.99,,,-99.99,,2013-01-24 04:42:00,
2013-01-23 23:52:00,11.0,8.0,-100.00,North,5,19.0,27.0,87,-99.99,,,-99.99,,2013-01-24 04:52:00,